This is the latest recevied weather packets stored in our database for station/object I1SXT-13. If no packets are shown the sender has not sent any weather packets the latest 10 day(s).
| Time | Temp. | Humidity | Pressure | Rain* | Wind** | Luminosity | Snow |
|---|---|---|---|---|---|---|---|
| 1778099969 | 14.44° C | 88% | 1012.3 hPa | 34.29 mm | - | - | - |
| 1778099063 | 14.44° C | 89% | 1012.5 hPa | 34.29 mm | - | - | - |
| 1778098766 | 14.44° C | 89% | 1012.7 hPa | 34.29 mm | - | - | - |
| 1778098469 | 15° C | 88% | 1012.2 hPa | 34.29 mm | - | - | - |
| 1778098165 | 14.44° C | 88% | 1012 hPa | 34.29 mm | - | - | - |
| 1778097868 | 15° C | 89% | 1011.7 hPa | 34.29 mm | - | - | - |
| 1778097564 | 15° C | 88% | 1012.6 hPa | 34.29 mm | - | - | - |
| 1778097267 | 15° C | 89% | 1012.5 hPa | 34.29 mm | - | - | - |
| 1778096970 | 14.44° C | 89% | 1012.7 hPa | 34.29 mm | - | - | - |
| 1778096665 | 14.44° C | 88% | 1011.8 hPa | 34.29 mm | - | - | - |
| 1778096368 | 15° C | 88% | 1011.9 hPa | 34.29 mm | - | - | - |
| 1778096064 | 15° C | 88% | 1011.9 hPa | 34.29 mm | - | - | - |
| 1778095767 | 15° C | 89% | 1012 hPa | 34.29 mm | - | - | - |
| 1778095470 | 15° C | 88% | 1011.9 hPa | 34.29 mm | - | - | - |
| 1778095166 | 15° C | 88% | 1011.6 hPa | 34.29 mm | - | - | - |
| 1778094869 | 15° C | 87% | 1011.4 hPa | 34.29 mm | - | - | - |
| 1778094565 | 15.56° C | 86% | 1011.3 hPa | 34.29 mm | - | - | - |
| 1778094268 | 15.56° C | 85% | 1011.5 hPa | 34.29 mm | - | - | - |
| 1778093963 | 15.56° C | 85% | 1011.3 hPa | 34.29 mm | - | - | - |
| 1778093666 | 16.11° C | 82% | 1011.5 hPa | 34.29 mm | - | - | - |
| 1778093369 | 16.11° C | 81% | 1011 hPa | 34.29 mm | - | - | - |
| 1778093065 | 15.56° C | 83% | 1011.4 hPa | 34.29 mm | - | - | - |
| 1778092768 | 16.11° C | 82% | 1011.8 hPa | 34.29 mm | - | - | - |
| 1778092464 | 16.11° C | 82% | 1011.1 hPa | 34.29 mm | - | - | - |
| 1778092167 | 15.56° C | 85% | 1011.2 hPa | 34.29 mm | - | - | - |
* Rain since midnight (hover to see other rain measurements)
** Current wind speed in m/s (hover to see current wind gust speed)